This is the latest recevied weather packets stored in our database for station/object N2XGL-1. If no packets are shown the sender has not sent any weather packets the latest 10 day(s).
| Time | Temp. | Humidity | Pressure | Rain* | Wind** | Luminosity | Snow |
|---|---|---|---|---|---|---|---|
| 1777962310 | 8.33° C | 91% | 1004.6 hPa | 0 mm | - | - | - |
| 1777962239 | 8.33° C | 91% | 1004.6 hPa | 0 mm | - | - | - |
| 1777961078 | 7.78° C | 90% | 1004.6 hPa | 0 mm | - | - | - |
| 1777960578 | 7.78° C | 90% | 1004.6 hPa | 0 mm | - | - | - |
| 1777959552 | 7.78° C | 90% | 1004.3 hPa | 0 mm | - | - | - |
| 1777958972 | 7.78° C | 90% | 1004.2 hPa | 0 mm | - | - | - |
| 1777958433 | 8.33° C | 90% | 1004.1 hPa | 0 mm | - | - | - |
| 1777957863 | 8.33° C | 89% | 1004 hPa | 0 mm | - | - | - |
| 1777957303 | 8.33° C | 89% | 1004 hPa | 0 mm | - | - | - |
| 1777956764 | 8.33° C | 89% | 1004 hPa | 0 mm | - | - | - |
| 1777955679 | 8.33° C | 89% | 1004 hPa | 0 mm | - | - | - |
| 1777955158 | 8.33° C | 88% | 1004 hPa | 0 mm | - | - | - |
| 1777954702 | 8.89° C | 88% | 1004.1 hPa | 0.25 mm | - | - | - |
| 1777954653 | 8.89° C | 88% | 1004.1 hPa | 0.25 mm | - | - | - |
| 1777953533 | 9.44° C | 87% | 1003.8 hPa | 0.76 mm | - | - | - |
| 1777953049 | 9.44° C | 87% | 1003.8 hPa | 0.76 mm | - | - | - |
| 1777952564 | 9.44° C | 87% | 1003.7 hPa | 1.02 mm | - | - | - |
| 1777951989 | 10° C | 86% | 1003.8 hPa | 1.27 mm | - | - | - |
| 1777951394 | 10° C | 86% | 1003.6 hPa | 1.27 mm | - | - | - |
| 1777950893 | 10° C | 84% | 1003.3 hPa | 0.76 mm | - | - | - |
| 1777950293 | 10.56° C | 83% | 1003.1 hPa | 0.51 mm | - | - | - |
| 1777949761 | 10.56° C | 82% | 1003.1 hPa | 0.51 mm | - | - | - |
| 1777949208 | 10.56° C | 80% | 1002.9 hPa | 0.25 mm | - | - | - |
| 1777948093 | 10.56° C | 75% | 1002.8 hPa | 0 mm | - | - | - |
| 1777947573 | 10.56° C | 74% | 1002.7 hPa | 0 mm | - | - | - |
* Rain latest hour (hover to see other rain measurements)
** Current wind speed in m/s (hover to see current wind gust speed)